Change the Weather History Date:

Thursday, May 15, 2014

  Actual Average Record
Temperature  
Mean Temperature 59 °F 58 °F  
Max Temperature 67 °F 69 °F 87 °F (1962)
Min Temperature 50 °F 46 °F 33 °F (1969)
Degree Days  
Heating Degree Days 6 8  
Month to date heating degree days 109 149  
Since 1 July heating degree days 6731 6176  
Cooling Degree Days 0 1  
Month to date cooling degree days 32 8  
Year to date cooling degree days 32 17  
Growing Degree Days 8 (Base 50)    
Moisture  
Dew Point 57 °F    
Average Humidity 87    
Maximum Humidity 93    
Minimum Humidity 81    
Precipitation  
Precipitation 0.57 in 0.13 in 1.26 in (1988)
Month to date precipitation 3.12 1.75  
Year to date precipitation 14.66 12.75  
Snow  
Snow 0.00 in 0.00 in - ()
Month to date snowfall 0.0 0.0  
Since 1 July snowfall 90.1 62.7  
Snow Depth 0.00 in    
Sea Level Pressure  
Sea Level Pressure 29.88 in    
Wind  
Wind Speed 10 mph (South)    
Max Wind Speed 28 mph    
Max Gust Speed 36 mph    
Visibility 8 miles    
Events Rain , Thunderstorm    
T = Trace of Precipitation, MM = Missing Value Source: NWS Daily Summary

Daily Weather History Graph

Daily Weather History Graph

Search for Another Location

Airport or City:

Trip Planner

Search our weather history database for the weather conditions in past years. The results will help you decide how hot, cold, wet, or windy it might be!

Date:

Astronomy

May. 15, 2014 Rise Set
Actual Time 6:04 AM EDT 8:34 PM EDT
Civil Twilight 5:32 AM EDT 9:05 PM EDT
Nautical Twilight 4:53 AM EDT 9:45 PM EDT
Astronomical Twilight 4:10 AM EDT 10:29 PM EDT
Moon 9:40 PM EDT (5/15) 6:50 AM EDT (5/15)
Length of Visible Light 15h 33m
Length of Day
14h 30m
Full, 99% of the Moon is Illuminated
May 15
Full
May 21
Last Quarter
May 28
New
Jun 5
First Quarter
Jun 13
Full

Hourly Weather History & Observations

Time (EDT) Temp. Dew Point Humidity Pressure Visibility Wind Dir Wind Speed Gust Speed Precip Events Conditions
12:51 AM 64.0 °F 62.1 °F 93% 29.93 in 10.0 mi East 5.8 mph - 0.13 in Rain , Thunderstorm Light Thunderstorms and Rain
1:06 AM 64.4 °F 62.6 °F 94% 29.94 in 10.0 mi East 9.2 mph - 0.00 in   Overcast
1:51 AM 64.0 °F 61.0 °F 90% 29.91 in 10.0 mi ESE 11.5 mph - 0.00 in   Overcast
2:51 AM 64.0 °F 62.1 °F 93% 29.88 in 9.0 mi SE 13.8 mph - N/A   Mostly Cloudy
3:51 AM 64.9 °F 61.0 °F 87% 29.86 in 9.0 mi SE 11.5 mph 18.4 mph N/A   Mostly Cloudy
4:51 AM 64.9 °F 61.0 °F 87% 29.84 in 9.0 mi SE 10.4 mph - N/A   Mostly Cloudy
5:51 AM 64.9 °F 61.0 °F 87% 29.85 in 9.0 mi SE 9.2 mph - N/A   Overcast
6:51 AM 66.0 °F 61.0 °F 84% 29.85 in 9.0 mi SE 8.1 mph - N/A   Overcast
7:51 AM 66.0 °F 61.0 °F 84% 29.85 in 6.0 mi SSE 10.4 mph 18.4 mph 0.01 in Rain Light Rain
8:51 AM 64.9 °F 61.0 °F 87% 29.84 in 3.0 mi SSE 11.5 mph 19.6 mph 0.02 in Rain Light Rain
9:51 AM 64.9 °F 61.0 °F 87% 29.83 in 3.0 mi SSE 10.4 mph 17.3 mph 0.04 in Rain Light Rain
10:51 AM 64.9 °F 61.0 °F 87% 29.83 in 5.0 mi SE 18.4 mph 28.8 mph 0.01 in Rain Light Rain
11:51 AM 64.9 °F 60.1 °F 84% 29.83 in 7.0 mi SSE 15.0 mph 28.8 mph 0.00 in Rain Light Rain
12:08 PM 66.2 °F 60.8 °F 83% 29.84 in 9.0 mi SSE 17.3 mph 27.6 mph 0.00 in Rain Light Rain
12:51 PM 66.0 °F 60.1 °F 81% 29.82 in 9.0 mi SSE 17.3 mph 26.5 mph 0.00 in Rain Light Rain
1:51 PM 66.2 °F 60.8 °F 83% 29.83 in 10.0 mi SSE 10.4 mph 19.6 mph N/A   Overcast
2:29 PM 64.4 °F 60.8 °F 88% 29.86 in 0.8 mi SW 24.2 mph 35.7 mph 0.02 in Rain Heavy Rain
2:41 PM 60.8 °F 59.0 °F 94% 29.86 in 2.5 mi WSW 15.0 mph 24.2 mph N/A Rain Light Rain
3:10 PM 60.8 °F 55.4 °F 82% 29.87 in 7.0 mi WSW 13.8 mph 19.6 mph 0.02 in Rain Light Rain
3:32 PM 59.0 °F 55.4 °F 88% 29.87 in 1.5 mi WSW 15.0 mph 20.7 mph 0.03 in Rain Rain
3:41 PM 57.2 °F 53.6 °F 88% 29.87 in 3.0 mi SSW 9.2 mph 20.7 mph 0.06 in Rain Light Rain
3:51 PM 57.9 °F 55.0 °F 90% 29.86 in 9.0 mi South 5.8 mph - 0.09 in Rain Light Rain
4:38 PM 59.0 °F 57.2 °F 94% 29.86 in 7.0 mi Calm Calm - 0.02 in Rain Light Rain
4:51 PM 60.1 °F 57.9 °F 93% 29.87 in 10.0 mi SW 3.5 mph - 0.02 in Rain Light Rain
5:38 PM 60.8 °F 55.4 °F 82% 29.89 in 10.0 mi SSW 6.9 mph - 0.00 in Rain Light Rain
5:51 PM 59.0 °F 55.9 °F 90% 29.88 in 5.0 mi SSW 5.8 mph - 0.00 in Rain Light Rain
6:37 PM 59.0 °F 55.4 °F 88% 29.88 in 7.0 mi SSW 5.8 mph - 0.03 in Rain Light Rain
6:51 PM 57.9 °F 55.0 °F 90% 29.88 in 10.0 mi WSW 13.8 mph 20.7 mph 0.03 in Rain Light Rain
7:35 PM 57.2 °F 51.8 °F 82% 29.92 in 10.0 mi SW 10.4 mph - 0.00 in Rain Light Rain
7:51 PM 55.9 °F 52.0 °F 87% 29.92 in 5.0 mi WSW 10.4 mph - 0.01 in Rain Light Rain
8:51 PM 54.0 °F 50.0 °F 86% 29.94 in 6.0 mi WSW 8.1 mph - 0.05 in Rain Light Rain
9:16 PM 53.6 °F 50.0 °F 88% 29.95 in 8.0 mi WSW 5.8 mph - 0.03 in Rain Light Rain
9:34 PM 51.8 °F 48.2 °F 88% 29.96 in 9.0 mi WSW 8.1 mph - 0.04 in Rain Light Rain
9:51 PM 52.0 °F 48.9 °F 89% 29.96 in 10.0 mi WSW 5.8 mph - 0.05 in Rain Light Rain
10:51 PM 51.1 °F 48.9 °F 92% 29.96 in 10.0 mi SW 4.6 mph - 0.01 in Rain Light Rain
11:51 PM 51.1 °F 48.9 °F 92% 29.98 in 10.0 mi South 3.5 mph - 0.02 in Rain Light Rain